Location: Crayja
(6.2254°N, 10.6273°W)
Time: 08:38:40
(UTC+00:00)

STARLINK-71 - Pass Details

Date: 17 February 2020
Orbit: 528 x 531 km, 53.0° (Epoch: 29 March)

Event Time Altitude Azimuth Distance (km) Brightness Sun altitude
Exits shadow 05:28:51 49° 191° (S) 685 4.0 -22.7°
Drops below altitude 10° 05:32:05 10° 156° (SSE) 1,772 6.6 -21.9°
Sets 05:34:20 0° 152° (SSE) 2,662 7.7 -21.4°
